Regional Weather Roundup
Issued by NWS

Home | Current Version | Previous Version | Text Only | Print | Product List | Glossary On
Versions: 1 2 3 4 5 6 7 8 9 10 11 12 13 14 15 16 17 18 19 20 21 22 23 24 25 26
000
ASUS45 KREV 131210
RWRNV
NEVADA REGIONAL WEATHER ROUNDUP
NATIONAL WEATHER SERVICE RENO NV
400 AM PST WED DEC 13 2017

NOTE: "FAIR" INDICATES FEW OR NO CLOUDS BELOW 12,000 FEET WITH NO
SIGNIFICANT WEATHER AND/OR OBSTRUCTIONS TO VISIBILITY.

NVZ001-003-004-131300-
WESTERN NEVADA

CITY           SKY/WX    TMP DP  RH WIND       PRES   REMARKS
RENO           PTCLDY    20  14  77 CALM      30.40F
6HR MIN TEMP:  19; 6HR MAX TEMP:  29;

CARSON CITY    FAIR      16  10  79 CALM      30.40F
MINDEN         FAIR       9   5  85 NW3       30.40F
PYRAMID LAKE     N/A     32 N/A N/A W6          N/A
FALLON         CLOUDY    10   3  73 S6        30.40F
6HR MIN TEMP:   7; 6HR MAX TEMP:  19;

LOVELOCK       CLOUDY     8   3  80 SW5       30.41S
6HR MIN TEMP:   2; 6HR MAX TEMP:  14;

HAWTHORNE      CLEAR     19  14  79 W3        30.40S
$$

NVZ002-CAZ072-073-131300-
NORTHERN AND CENTRAL SIERRA

CITY           SKY/WX    TMP DP  RH WIND       PRES   REMARKS
S. LAKE TAHOE  PTCLDY    16  12  84 CALM      30.37F
6HR MIN TEMP:  16; 6HR MAX TEMP:  24;

TRUCKEE        FOG       12  10  92 CALM      30.38S VSB 1
SQUAW VLY 8000   N/A     41 -38   3 W1          N/A
SUSANVILLE     CLEAR     16  12  86 CALM      30.40F
BLUE CANYON    CLEAR     59 -28   2 NE3       30.28S
MAMMOTH LAKES  FAIR       9  -1  63 CALM      30.38F
6HR MIN TEMP:   9; 6HR MAX TEMP:  26;

$$

NVZ030-031-036-131300-
NORTHERN NEVADA

CITY           SKY/WX    TMP DP  RH WIND       PRES   REMARKS
ELKO           MOCLDY    11   7  84 NE6       30.36F
6HR MIN TEMP:   9; 6HR MAX TEMP:  20;

WINNEMUCCA     CLOUDY     6   1  80 SE5       30.38F
6HR MIN TEMP:   5; 6HR MAX TEMP:  18;

WENDOVER       CLOUDY    13  11  92 S5        30.41S FOG
$$

NVZ035-037-131300-
CENTRAL NEVADA

CITY           SKY/WX    TMP DP  RH WIND       PRES   REMARKS
ELY            MOCLDY    13   0  56 S13       30.34F WCI  -2
6HR MIN TEMP:  11; 6HR MAX TEMP:  23;

EUREKA           N/A     12   2  64 SW6       30.36S
6HR MIN TEMP:  11; 6HR MAX TEMP:  19;

$$

NVZ013-014-131300-
SOUTH CENTRAL NEVADA

CITY           SKY/WX    TMP DP  RH WIND       PRES   REMARKS
TONOPAH        CLOUDY    23  -7  26 N8        30.32F
6HR MIN TEMP:  22; 6HR MAX TEMP:  33;

$$

NVZ017-020-022-131300-
SOUTHERN NEVADA

CITY           SKY/WX    TMP DP  RH WIND       PRES   REMARKS
LAS VEGAS      CLEAR     44   3  18 SW6       30.14F
6HR MIN TEMP:  44; 6HR MAX TEMP:  51;

N. LAS VEGAS   CLEAR     48   2  15 N3        30.14F
6HR MIN TEMP:  42; 6HR MAX TEMP:  55;

NELLIS AFB     CLEAR     32  -4  20 NE5       30.14F
6HR MIN TEMP:  32; 6HR MAX TEMP:  43;

HENDERSON      PTCLDY    40  -1  18 S9        30.16F
6HR MIN TEMP:  39; 6HR MAX TEMP:  45;

MERCURY        PTCLDY    41  -1  17 NE5       30.18F
6HR MIN TEMP:  40; 6HR MAX TEMP:  48;

$$




USA.gov is the U.S. government's official web portal to all federal, state and local government web resources and services.